Regional Weather Roundup
Issued by NWS Sterling, VA

Home | Current Version | Previous Version | Text Only | Print | Product List | Glossary On
Versions: 1 2 3 4 5 6 7 8 9 10 11 12 13 14 15 16 17 18 19 20 21 22 23 24 25 26 27 28 29 30 31 32 33 34 35 36 37 38 39 40 41 42 43 44 45 46 47 48 49 50
000
ASUS41 KLWX 271411
RWRLWX

REGIONAL WEATHER ROUNDUP
NATIONAL WEATHER SERVICE BALTIMORE MD/WASHINGTON DC
1000 AM EDT TUE JUN 27 2017

Note: "FAIR" indicates few or no clouds below 12,000 feet
with no significant weather and/or obstructions to visibility.
 TC=TEMPERATURE CELSIUS

 * =Non NWS site. Station does not report precipitation (e.g. rain,
    snow, etc.), thunder, or fog.

DCZ001-MDZ009-015-VAZ040>042-051-053>054-271500-
WASHINGTON METRO

CITY           SKY/WX    TMP DP  RH WIND       PRES   REMARKS
WASHINGTON NAT MOSUNNY   76  51  41 N7        30.04F
DULLES         MOSUNNY   73  50  44 VRB5      30.04S
ANDREWS AFB    MOSUNNY   74  51  43 N5        30.02F
FT BELVOIR     SUNNY     76  49  38 W3        30.03F
QUANTICO       MOSUNNY   74  55  51 S3        30.04F
COLLEGE PARK*  SUNNY     73  50  44 W3        30.02F
LEESBURG*      CLOUDY    73  55  53 N6        30.05F
MANASSAS*      SUNNY     73  54  49 NW6       30.04F
GAITHERSBURG*  MOSUNNY   72  52  49 NW6       30.05S

$$

MDZ006>007-011-014-271500-
BALTIMORE METRO

CITY           SKY/WX    TMP DP  RH WIND       PRES   REMARKS
BWI AIRPORT    PTSUNNY   75  52  44 N5        30.02F
MD SCIENCE CTR   N/A     76  51  41 MISG      30.02F
MARTIN STATE   PTSUNNY   75  55  50 W6        30.04S
ANNAPOLIS      SUNNY     72  56  57 NW7       30.02F
FORT MEADE*    SUNNY     72  52  49 CALM      30.05F

$$

MDZ012-015-019>023-271500-
MARYLAND EASTERN SHORE

CITY           SKY/WX    TMP DP  RH WIND       PRES   REMARKS
OCEAN CITY     PTSUNNY   69  57  65 N8        30.02F
SALISBURY      PTSUNNY   73  57  57 N7        30.02F
BAY BRIDGE AP* SUNNY     73  55  53 CALM      30.02F
EASTON*        MOSUNNY   75  59  57 SW3       30.07R

$$

MDZ017>025-271500-
SOUTHERN MARYLAND

CITY           SKY/WX    TMP DP  RH WIND       PRES   REMARKS
PATUXENT RIVER CLOUDY    74  53  48 N6        30.04R
ST INIGOES     CLOUDY    75  56  51 VRB5      30.03S
LEONARDTOWN*   CLOUDY    70  55  60 CALM      30.05F

$$

MDZ003>005-271500-
NORTH CENTRAL MARYLAND

CITY           SKY/WX    TMP DP  RH WIND       PRES   REMARKS
FREDERICK*     SUNNY     72  48  43 NW7       30.07S
HAGERSTOWN APT MOSUNNY   69  51  52 W9        30.04S
WESTMINSTER*   SUNNY     70  52  52 W8        30.04S

$$

MDZ501>502-271500-
WESTERN MARYLAND

CITY           SKY/WX    TMP DP  RH WIND       PRES   REMARKS
OAKLAND*       NOT AVBL
CUMBERLAND*    PTSUNNY   68  48  49 W6        30.09S

$$

VAZ025>031-271500-
SHENANDOAH VALLEY

CITY           SKY/WX    TMP DP  RH WIND       PRES   REMARKS
WINCHESTER*    MOSUNNY   68  50  52 W5        30.05S
FRONT ROYAL*   MOSUNNY   68  52  56 S5        30.05S
LURAY*         PTSUNNY   68  55  64 S3        30.06S
NEW MARKET*    MOSUNNY   70  48  46 S3        30.05F
STAUNTON*      PTSUNNY   67  51  56 S5        30.09S
WAYNESBORO*    CLOUDY    66  53  63 S6        30.09S

$$

WVZ021-048>050-054>055-271500-
EASTERN WEST VIRGINIA PANHANDLE

CITY           SKY/WX    TMP DP  RH WIND       PRES   REMARKS
MARTINSBURG    MOSUNNY   70  51  51 W9        30.04S
PETERSBURG*    MOSUNNY   72  51  47 W12G18    30.06F

$$

VAZ036>039-050-271500-
CENTRAL FOOTHILLS

CITY           SKY/WX    TMP DP  RH WIND       PRES   REMARKS
CHARLOTTESVILL MOSUNNY   73  51  46 CALM      30.06S
CULPEPER*      SUNNY     75  53  46 CALM      30.05F
ORANGE*        MOSUNNY   73  50  43 CALM      30.04F
GORDONSVILLE*  SUNNY     74  50  43 CALM      30.05S
WARRENTON*     MOSUNNY   75  48  39 CALM      30.04F

$$

VAZ055>057-271500-
NORTH AND CENTRAL PIEDMONT

CITY           SKY/WX    TMP DP  RH WIND       PRES   REMARKS
FREDERICKSBRG* MOSUNNY   74  55  52 CALM      30.03F
STAFFORD*      SUNNY     75  50  42 N3        30.08F

$$

NCZ024-NYZ072-PAZ021-071-VAZ022-071-271500-
OTHER REGIONAL OBSERVATIONS

CITY           SKY/WX    TMP DP  RH WIND       PRES   REMARKS
NEW YORK CITY  CLOUDY    67  60  78 CALM      30.03S
PHILADELPHIA   CLOUDY    67  60  78 S5        30.02F
PITTSBURGH     MOSUNNY   62  49  62 W10       30.07R
ROANOKE        MOSUNNY   70  50  49 CALM      30.12S
RICHMOND       CLOUDY    71  56  58 NE6       30.05S
RALEIGH        PTSUNNY   75  55  49 VRB6      30.08R

$$

ANZ530>537-271500-
MARINE OBSERVATIONS

STATION/POSITION TIME  TEMP    WIND        PRES
                       AIR SEA DIR/SP/G
                 (UTC) (F)     (DEG/KT/KT) (MB)
THOMAS PT LIGHT  1400   71 77   20/  2/  3   N/A
BALT KEY BRIDGE  1348   72     350/  2/  3 1016.5F
COVE POINT       1348   71     340/  7/ 10 1017.7S
LEWISETTA        1348   73 79   30/  5/  7 1017.0F
SOLOMONS ISLAND  1348   72 78  330/  4/  8   N/A
PINEY POINT      1348           50/  4/  6   N/A

$$




USA.gov is the U.S. government's official web portal to all federal, state and local government web resources and services.